[[{"header":{"parameterUnit":"m.s-1","parameterCategory":1,"la1":30.2991,"la2":30.254,"lo1":-89.0895,"lo2":-89.0444,"dy":0.0017,"dx":0.0017,"nx":28,"ny":28,"refTime":"2025-06-07T21:00:00:Z","depth":0,"parameterNumber":2,"parameterNumberName":"U-component_of_WINDS"},"data":[0,0,0,0,0,0,0,0,0,0,0,0,0,0,0,0,0,0,0,0,0,0,0,0,0,0,0,0,0,0,0,0,0,0,0,0,0,0,0,0,0,0,0,0,0,0,0,0,0,0,0,0,0,0,0,0,0,0,3.2104,3.2105,0,3.22,3.2201,3.2202,3.2279,3.228,3.2281,3.2281,3.2379,3.2381,3.2382,0,0,0,0,0,0,0,0,0,0,0,0,0,3.1989,3.1991,3.2104,3.2105,3.2106,3.22,3.2201,3.2203,3.2279,3.228,3.2281,3.2282,3.2378,3.238,3.2383,0,0,0,0,0,0,0,0,0,0,0,0,0,3.2058,3.1992,3.2104,3.2156,3.2161,3.22,3.2201,3.2203,3.2279,3.228,3.2281,3.2282,3.2377,3.238,3.2383,3.2377,0,0,3.2392,3.2393,0,0,0,0,0,0,0,0,3.2054,3.2062,3.2147,3.2152,3.2159,3.2229,3.2197,3.2261,3.2278,3.2234,3.2281,3.2283,3.2328,3.2335,3.235,3.2382,3.2386,3.2392,3.2393,3.2395,3.2395,0,0,0,0,0,0,0,3.2049,3.2058,3.2142,3.2148,3.2155,3.2175,3.2186,3.2209,3.2273,3.2238,3.2244,3.2254,3.2331,3.2347,3.2353,3.2387,3.2392,3.2394,3.2396,3.2397,3.2424,3.2423,0,0,0,0,0,0,3.2036,3.2053,3.2139,3.2145,3.2108,3.2176,3.2189,3.2205,3.2273,3.2285,3.2253,3.2257,3.2342,3.235,3.2357,3.2357,3.2395,3.2397,3.2399,3.2425,3.2424,3.2423,0,0,0,0,0,0,3.2033,3.2043,3.2135,3.2101,3.2114,3.2177,3.2195,3.2206,3.2222,3.2285,3.2297,3.2258,3.2343,3.2353,3.2373,3.2361,3.2399,3.2401,3.2426,3.2424,3.2423,3.2355,0,0,0,0,0,0,3.2029,3.2041,3.2038,3.21,3.2116,3.2148,3.2194,3.2207,3.2227,3.2234,3.2292,3.2303,3.2345,3.2368,3.2375,3.2366,3.2403,3.2427,3.2425,3.2424,3.2358,3.2351,3.2345,0,0,0,0,0,3.2025,3.2014,3.2038,3.2048,3.2113,3.2147,3.2156,3.2205,3.2226,3.2224,3.2266,3.2301,3.2362,3.2369,3.2378,3.2369,3.2428,3.2426,3.2424,3.2361,3.2353,3.2345,0,0,0,0,0,0,3.1947,3.2023,3.205,3.2058,3.2096,3.216,3.2159,3.2193,3.2225,3.2229,3.2289,3.2302,3.2316,3.2345,3.2352,3.237,3.24,3.2399,3.2349,3.2342,3.2335,3.2327,3.2406,0,0,0,0,0,3.1931,3.1952,3.2017,3.2018,3.2036,3.2094,3.2111,3.2146,3.2187,3.2202,3.2245,3.2283,3.2312,3.2329,3.2358,3.2364,3.2379,3.2363,3.2357,3.2351,3.2349,3.2358,3.2352,3.2415,3.2415,3.2415,0,0,3.1898,3.1942,3.1951,3.2004,3.2037,3.2058,3.2107,3.2126,3.2142,3.2205,3.2227,3.226,3.2307,3.2321,3.2329,3.2346,3.2336,3.2348,3.2343,3.2344,3.2355,3.2349,3.2344,3.2414,3.2414,3.2414,0,0,3.1847,3.1882,3.1889,3.1922,3.1973,3.2013,3.2014,3.2075,3.2099,3.2122,3.2171,3.2193,3.224,3.2273,3.2295,3.2265,3.2299,3.2273,3.2237,3.2245,3.224,3.2236,3.2227,3.2222,3.2271,3.2271,3.2271,0,3.1799,3.1832,3.1887,3.1905,3.1928,3.1989,3.1998,3.2027,3.2084,3.21,3.2118,3.2182,3.2217,3.2241,3.2235,3.2251,3.2256,3.2265,3.2237,3.2233,3.223,3.2222,3.2218,3.2268,3.2268,3.2268,3.2269,0,3.1771,3.1794,3.1793,3.1849,3.1873,3.1885,3.1944,3.1962,3.1997,3.2036,3.2061,3.2107,3.2149,3.2158,3.2191,3.2188,3.2197,3.2225,3.2256,3.222,3.2213,3.221,3.2263,3.2264,3.2265,3.2266,0,0,3.1669,3.176,3.1758,3.1786,3.1849,3.1868,3.1886,3.1928,3.1943,3.1982,3.1999,3.2041,3.2069,3.2095,3.2134,3.2141,3.2116,3.2169,3.2171,3.2158,3.2119,3.2096,3.2091,3.2141,3.2141,3.2141,3.2115,0,3.1628,3.1662,3.1715,3.1732,3.1756,3.1817,3.1833,3.1875,3.1913,3.1939,3.1982,3.2011,3.2045,3.2062,3.2072,3.2117,3.2109,3.212,3.2158,3.2159,3.2143,3.2087,3.2062,3.2035,3.2112,3.2112,3.2112,0,3.1584,3.1622,3.1641,3.1707,3.1719,3.1732,3.1777,3.1802,3.1852,3.188,3.1912,3.1955,3.1979,3.2009,3.2045,3.2051,3.2071,3.2096,3.2096,3.21,3.2131,3.2089,3.2027,3.2023,3.2108,3.2108,3.2108,0,3.1508,3.1564,3.1584,3.1606,3.1683,3.1691,3.1724,3.1776,3.1799,3.184,3.1856,3.1898,3.1921,3.1954,3.2009,3.2025,3.2039,3.2073,3.2064,3.2062,3.2061,3.206,3.2001,3.2076,3.2076,3.2076,3.2076,0,3.1456,3.1465,3.1552,3.1563,3.1577,3.1641,3.1653,3.1692,3.1739,3.1761,3.1817,3.1837,3.1909,3.1938,3.1981,3.2005,3.2015,3.2039,3.205,3.2033,3.203,3.2045,3.2048,3.2075,3.2075,3.2075,3.2075,0,3.1371,3.1429,3.1455,3.1528,3.1547,3.1554,3.1617,3.1633,3.1677,3.1704,3.1715,3.1784,3.1821,3.1881,3.1935,3.1965,3.1981,3.2,3.1964,3.197,3.1958,3.1958,3.1905,3.1902,3.1979,3.1978,3.1977,0,3.1333,3.1342,3.1418,3.1437,3.1468,3.1498,3.1524,3.1589,3.1613,3.1675,3.1683,3.1726,3.1763,3.1821,3.1876,3.1919,3.194,3.1919,3.1946,3.193,3.194,3.1938,3.194,3.1911,3.191,3.1909,3.1908,0,3.1259,3.1289,3.1323,3.1369,3.1399,3.1437,3.1479,3.1492,3.1567,3.1592,3.1632,3.1661,3.172,3.1762,3.1814,3.185,3.1892,3.19,3.19,3.1881,3.186,3.1872,3.1945,3.19,3.19,3.1901,3.1901,3.1902,3.1197,3.1209,3.1265,3.1303,3.1343,3.1382,3.1401,3.1449,3.1484,3.1536,3.1574,3.1612,3.1668,3.1743,3.1777,3.1809,3.1827,3.1827,3.1827,3.1825,3.1819,3.1857,3.1819,3.1819,3.182,3.182,3.182,0,3.1126,3.1167,3.1201,3.1259,3.129,3.133,3.138,3.1403,3.1436,3.1485,3.1522,3.157,3.1613,3.1675,3.1723,3.1737,3.1758,3.1747,3.1746,3.1754,3.18,3.1795,3.173,3.173,3.173,3.173,3.173,3.173,3.1092,3.1117,3.1154,3.12,3.1242,3.128,3.1306,3.1343,3.1383,3.1434,3.1471,3.1512,3.1567,3.162,3.1662,3.168,3.1695,3.1678,3.1701,3.1742,3.175,3.1758,3.1754,3.1681,3.1681,3.1653,3.1652,3.1652]},{"header":{"parameterUnit":"m.s-1","parameterCategory":1,"la1":30.2991,"la2":30.254,"lo1":-89.0895,"lo2":-89.0444,"dy":0.0017,"dx":0.0017,"nx":28,"ny":28,"refTime":"2025-06-07T21:00:00:Z","depth":0,"parameterNumber":3,"parameterNumberName":"V-component_of_WINDS"},"data":[0,0,0,0,0,0,0,0,0,0,0,0,0,0,0,0,0,0,0,0,0,0,0,0,0,0,0,0,0,0,0,0,0,0,0,0,0,0,0,0,0,0,0,0,0,0,0,0,0,0,0,0,0,0,0,0,0,0,4.7406,4.7408,0,4.7649,4.7651,4.7654,4.771,4.7709,4.7707,4.7706,4.7947,4.7955,4.7963,0,0,0,0,0,0,0,0,0,0,0,0,0,4.6984,4.6992,4.7405,4.7409,4.7412,4.7648,4.7651,4.7655,4.7711,4.7709,4.7707,4.7705,4.7945,4.7954,4.7964,0,0,0,0,0,0,0,0,0,0,0,0,0,4.7191,4.6994,4.7405,4.7468,4.7476,4.7647,4.7652,4.7656,4.7711,4.7709,4.7706,4.7704,4.7942,4.7953,4.7965,4.8089,0,0,4.8002,4.8007,0,0,0,0,0,0,0,0,4.7179,4.7206,4.7456,4.7464,4.7474,4.7647,4.7592,4.7801,4.7712,4.7622,4.7705,4.7703,4.7849,4.7868,4.7919,4.81,4.811,4.8003,4.801,4.8015,4.8019,0,0,0,0,0,0,0,4.7165,4.7196,4.7501,4.7459,4.747,4.7483,4.7509,4.7632,4.7746,4.7629,4.7634,4.7662,4.7853,4.7907,4.7925,4.8114,4.8002,4.8013,4.802,4.8025,4.8408,4.8411,0,0,0,0,0,0,4.714,4.7184,4.7494,4.7509,4.7318,4.7492,4.7522,4.7594,4.7745,4.7766,4.7664,4.7664,4.7888,4.7911,4.7934,4.8089,4.8015,4.8026,4.8033,4.8405,4.8409,4.8412,0,0,0,0,0,0,4.7131,4.7167,4.7484,4.7348,4.7389,4.7502,4.7582,4.76,4.7654,4.7771,4.7791,4.7699,4.7887,4.7917,4.805,4.8098,4.8032,4.8043,4.8402,4.8407,4.8411,4.84,0,0,0,0,0,0,4.7119,4.7164,4.7213,4.7349,4.7396,4.7598,4.7585,4.7606,4.7675,4.7678,4.7809,4.7829,4.7888,4.8032,4.8062,4.8114,4.8052,4.8398,4.8404,4.8409,4.8397,4.8404,4.841,0,0,0,0,0,4.7104,4.7199,4.7215,4.7252,4.7461,4.7601,4.7628,4.7695,4.7679,4.7729,4.7804,4.7825,4.8088,4.8045,4.808,4.8135,4.8395,4.8402,4.8409,4.8394,4.8402,4.8409,0,0,0,0,0,0,4.7063,4.7217,4.7238,4.738,4.7477,4.761,4.7675,4.7702,4.7804,4.7802,4.7879,4.7908,4.8037,4.8099,4.8049,4.8263,4.8241,4.8255,4.8218,4.8227,4.8233,4.8215,4.8062,0,0,0,0,0,4.7071,4.7174,4.7303,4.7416,4.7464,4.7561,4.7624,4.7668,4.7771,4.7812,4.7897,4.7994,4.8099,4.8166,4.8269,4.8406,4.8435,4.8461,4.8467,4.8472,4.8483,4.8561,4.8574,4.8435,4.8434,4.8434,0,0,4.7088,4.7185,4.7245,4.741,4.7491,4.7594,4.7595,4.7704,4.7781,4.7828,4.796,4.8025,4.8139,4.8274,4.8338,4.833,4.8528,4.8481,4.8484,4.8492,4.8569,4.8582,4.8593,4.8439,4.8438,4.8438,0,0,4.7172,4.7256,4.736,4.7441,4.7564,4.7629,4.7653,4.7783,4.7829,4.7963,4.8001,4.8092,4.8271,4.8351,4.8415,4.853,4.8553,4.8561,4.8595,4.867,4.8681,4.8691,4.8732,4.8746,4.8572,4.8572,4.8572,0,4.7177,4.7336,4.7409,4.7518,4.7589,4.7639,4.7744,4.7818,4.7967,4.8015,4.8004,4.8231,4.831,4.8466,4.8494,4.8544,4.8574,4.8547,4.8674,4.8684,4.8695,4.8735,4.8751,4.8572,4.8572,4.8572,4.8572,0,4.7336,4.7446,4.7515,4.7661,4.774,4.7846,4.7933,4.8004,4.8041,4.8106,4.8242,4.834,4.8464,4.8504,4.854,4.8664,4.8656,4.8658,4.8638,4.8707,4.8747,4.8763,4.8572,4.8572,4.8572,4.8572,0,0,4.74,4.7587,4.7611,4.7679,4.7819,4.7904,4.8011,4.8136,4.8195,4.8296,4.8388,4.8538,4.8543,4.8615,4.866,4.8726,4.8812,4.8721,4.8725,4.8735,4.8955,4.8953,4.897,4.8827,4.8831,4.8833,4.8946,0,4.7502,4.7699,4.7769,4.793,4.8033,4.8082,4.8176,4.8271,4.8334,4.8429,4.8498,4.8604,4.8601,4.8645,4.8712,4.8787,4.8857,4.878,4.8912,4.8916,4.8883,4.8991,4.8988,4.909,4.8962,4.8965,4.8966,0,4.7646,4.7753,4.7926,4.8054,4.81,4.8183,4.8303,4.8393,4.8501,4.8543,4.8625,4.8666,4.8779,4.8752,4.8908,4.8854,4.8912,4.8957,4.8963,4.8978,4.8946,4.9009,4.9124,4.914,4.8991,4.8989,4.8987,0,4.7676,4.7862,4.7991,4.8047,4.8199,4.8257,4.8323,4.8429,4.85,4.8603,4.865,4.8764,4.8827,4.8913,4.8984,4.8958,4.9134,4.9113,4.9171,4.9169,4.9206,4.9203,4.9333,4.9242,4.9242,4.9242,4.9242,0,4.7782,4.7886,4.8007,4.8085,4.8203,4.8281,4.8395,4.8463,4.8558,4.8649,4.8697,4.8782,4.887,4.8965,4.9021,4.9142,4.917,4.9206,4.9219,4.9202,4.9198,4.9241,4.9236,4.9246,4.9245,4.9244,4.9244,0,4.7836,4.7921,4.8064,4.8198,4.8234,4.8315,4.8429,4.8506,4.8572,4.8688,4.8719,4.8822,4.8937,4.9017,4.9163,4.92,4.9332,4.9344,4.9296,4.9303,4.9358,4.9352,4.9521,4.9547,4.9438,4.9439,4.944,0,4.7898,4.798,4.8124,4.819,4.8257,4.8363,4.8436,4.8516,4.8589,4.872,4.8781,4.89,4.9,4.9181,4.9268,4.938,4.9396,4.9447,4.9413,4.9393,4.9398,4.9392,4.9401,4.9453,4.9453,4.9454,4.9455,0,4.8,4.8038,4.8143,4.8264,4.8351,4.8448,4.8546,4.8597,4.8693,4.8773,4.8894,4.8971,4.9123,4.924,4.9361,4.9427,4.9457,4.9465,4.9485,4.9468,4.9438,4.9456,4.9312,4.9461,4.946,4.946,4.9459,4.9459,4.806,4.8136,4.825,4.8365,4.8448,4.8539,4.8619,4.8696,4.8799,4.8931,4.8971,4.9095,4.9202,4.9368,4.9436,4.9533,4.9529,4.9557,4.9564,4.957,4.9571,4.9422,4.9555,4.9555,4.9555,4.9555,4.9555,0,4.8165,4.8241,4.8347,4.8484,4.8575,4.8598,4.8708,4.8782,4.8892,4.899,4.9089,4.9226,4.9341,4.9437,4.9555,4.9615,4.9631,4.9643,4.964,4.9655,4.9567,4.9539,4.9628,4.9628,4.9628,4.9628,4.9628,4.9628,4.823,4.836,4.8412,4.8583,4.8658,4.8783,4.8844,4.8928,4.9007,4.916,4.9257,4.932,4.9417,4.9543,4.9649,4.9674,4.9715,4.9724,4.9752,4.9669,4.966,4.9652,4.9626,4.9732,4.9732,4.9832,4.9832,4.9833]}]]